Regional Weather Roundup
Issued by NWS

Home | Current Version | Previous Version | Graphics & Text | Print | Product List | Glossary On
Versions: 1 2 3 4 5 6 7 8 9 10 11 12 13 14 15 16 17 18 19 20 21 22 23 24 25 26 27 28 29 30 31 32 33 34 35 36 37 38 39 40 41 42 43 44 45 46 47 48 49 50
000
ASUS43 KMPX 051710
RWRMN
WEATHER ROUNDUP FOR MINNESOTA
NATIONAL WEATHER SERVICE TWIN CITIES/CHANHASSEN MN
1200 PM CDT SUN JUL 05 2015


NOTE: "FAIR" INDICATES FEW OR NO CLOUDS BELOW 12,000 FEET WITH NO
SIGNIFICANT WEATHER AND/OR OBSTRUCTIONS TO VISIBILITY. N/A MEANS
CURRENT SKY AND/OR WEATHER CONDITIONS ARE NOT AVAILABLE.

MNZ060>063-068>070-051800-
   Twin Cities Metro

CITY           SKY/WX    TMP DP  RH WIND       PRES   REMARKS
TWIN CITIES    CLOUDY    80  65  59 S15G22    29.87F
ST PAUL        PTSUNNY   78  66  66 SE15G24   29.87F
CRYSTAL        PTSUNNY   82  64  54 S13       29.85F
LAKEVILLE      CLOUDY    75  66  73 S12       29.89F
EDEN PRAIRIE   CLOUDY    80  67  64 S14       29.86F
SOUTH ST PAUL  PTSUNNY   78  64  61 S14       29.88F
LAKE ELMO      FAIR      79  66  65 S16G22    29.90F
$$
MNZ001>005-007-008-013>017-022>024-027-028-051800-
   Northwest Minnesota

CITY           SKY/WX    TMP DP  RH WIND       PRES   REMARKS
BEMIDJI        PTSUNNY   80  68  67 SW9G16    29.79R
HALLOCK        TSTM      66  64  94 E6        29.76F
ROSEAU         TSTM      68  63  83 CALM      29.78S
WARROAD        TSTM      66  63  88 NE8       29.76F
THIEF RVR FALL CLOUDY    72  66  83 SE3       29.79R
CROOKSTON      CLOUDY    73  70  88 SW9       29.80R
FOSSTON        CLOUDY    77  66  69 S13       29.78S
DETROIT LAKES  PTSUNNY   81  64  57 SW10G17   29.80S
MOORHEAD       PTSUNNY   82  70  65 SW9       29.76R
PARK RAPIDS    MOSUNNY   84  66  54 SW13      29.80F
MAHNOMEN       FAIR      79  67  66 SW15G21   29.77R
$$
MNZ006-009>011-018-025>026-051800-
   North Central Minnesota

CITY           SKY/WX    TMP DP  RH WIND       PRES   REMARKS
BAUDETTE         N/A     71  66  84 N6        29.78S
FLAG ISLAND    LGT RAIN  70  64  83 CALM      29.76F
INTL FALLS     CLOUDY    77  68  73 S3        29.79S
WASKISH        CLOUDY    75  70  83 W5        29.79R
BIG FORK       CLOUDY    79  66  65 S8        29.81S
LONGVILLE      MOSUNNY   81  66  61 S9        29.82R
GRAND RAPIDS   PTSUNNY   79  64  61 S10       29.83S
ORR            PTSUNNY   81  63  54 S3        29.79S
COOK           PTSUNNY   79  66  65 S7G16     29.83S
WALKER         FAIR      80  66  62 S9G16     29.80S
$$
MNZ012-019>021-037-051800-
   Northeast Minnesota

CITY           SKY/WX    TMP DP  RH WIND       PRES   REMARKS
DULUTH         MOSUNNY   77  64  64 S13       29.88S
ELY            MOSUNNY   79  63  57 SW12G18   29.85S
HIBBING        PTSUNNY   80  66  62 S10       29.84R
DULUTH HARBOR  MOSUNNY   68  63  83 N6        29.87R
TWO HARBORS    MOSUNNY   79  66  65 S12       29.86S
SILVER BAY     PTSUNNY   77  63  61 S13G20    29.86S
GRAND MARAIS     N/A     59  51  75 E5        29.90S
G MARAIS ARPRT MOSUNNY   70  59  68 S6        29.93S
$$
MNZ029>031-032-039>041-046>048-054>057-064-051800-
   West Central Minnesota

CITY           SKY/WX    TMP DP  RH WIND       PRES   REMARKS
FERGUS FALLS   SUNNY     81  66  61 SW10      29.78R
WHEATON        MOSUNNY   82  66  57 S10       29.78S
MORRIS         MOSUNNY   82  66  57 S16       29.80R
ALEXANDRIA     SUNNY     81  65  58 S8        29.84R
ELBOW LAKE     FAIR      81  67  62 S12       29.80S
WADENA         MOSUNNY   82  64  54 S10       29.81S
GLENWOOD       SUNNY     81  66  61 SE12      29.84S
APPLETON       PTSUNNY   84  64  51 SE8       29.79S
BENSON         MOSUNNY   81  64  57 S10       29.80F
ORTONVILLE     PTSUNNY   84  63  48 S10       29.77F
MADISON        PTSUNNY   84  66  54 S7        29.78F
WILLMAR        FAIR      81  68  65 S9G17     29.85R
$$
MNZ033>034-036-042>043-049>051-058-059-051800-
   Central Minnesota

CITY           SKY/WX    TMP DP  RH WIND       PRES   REMARKS
ST CLOUD       PTSUNNY   79  65  62 S14       29.86R
SAUK CENTRE    FAIR      79  67  66 S14       29.84R
PAYNESVILLE    MOSUNNY   77  65  66 SE12      29.87R
AITKIN         MOSUNNY   79  66  65 S8        29.83R
PINE RIVER       N/A     81  66  61 S10       29.85F
BRAINERD       MOSUNNY   81  64  56 SW10      29.84R
STAPLES        SUNNY     81  63  54 S7        29.82F
LONG PRAIRIE   FAIR      77  66  69 SE8       29.84S
LITTLE FALLS   MOSUNNY   79  63  57 SE10      29.84R
LITCHFIELD     PTSUNNY   79  70  73 SE6       29.87R
BUFFALO        CLOUDY    76  64  65 S9        29.88R
MAPLE LAKE     CLOUDY    76  68  75 S6        29.89R
$$
MNZ037-044-045-052-053-051800-
   East Central Minnesota

CITY           SKY/WX    TMP DP  RH WIND       PRES   REMARKS
PRINCETON      PTSUNNY   82  66  57 SE15      29.86R
MORA           MOSUNNY   77  63  61 S10       29.87S
CAMBRIDGE      PTSUNNY   82  64  54 S15       29.85R
RUSH CITY      PTSUNNY   78  65  64 SE10G16   29.88R
MOOSE LAKE     MOSUNNY   77  64  65 S10G18    29.85R
HINCKLEY       FAIR      79  66  65 S13       29.88R
CLOQUET        MOSUNNY   79  63  57 S9        29.87R
MCGREGOR       MOSUNNY   79  64  61 S12       29.85R
$$
MNZ071>073-080-081-089-090-097-098-051800-
   Southwest Minnesota

CITY           SKY/WX    TMP DP  RH WIND       PRES   REMARKS
MONTEVIDEO     MOSUNNY   82  66  57 S7        29.81S
GRANITE FALLS  MOSUNNY   81  68  65 SE12      29.83S
CANBY          MOSUNNY   84  61  46 S14G21    29.79R
MARSHALL       MOSUNNY   84  64  51 S16       29.81
REDWOOD FALLS  MOSUNNY   82  66  58 S14       29.84R
OLIVIA         MOSUNNY   77  63  61 S10       29.84R
PIPESTONE      SUNNY     79  64  61 SW16G28   29.83R
WINDOM         PTSUNNY   79  66  65 S9        29.87R
WORTHINGTON    MOSUNNY   79  66  65 SW22G35   29.85R
JACKSON        PTSUNNY   77  66  69 SW14      29.88R
TRACY          MOSUNNY   81  69  66 SE10      29.84R
SLAYTON        MOSUNNY   80  65  58 S14       29.85R
$$
MNZ065>067-074>077-082>085-091>093-051800-
   South Central Minnesota

CITY           SKY/WX    TMP DP  RH WIND       PRES   REMARKS
MANKATO        PTSUNNY   79  66  65 S14G24    29.88S
NEW ULM        MOSUNNY   79  66  65 S16G22    29.85R
ST JAMES       PTSUNNY   79  68  69 S17       29.88R
FAIRMONT       CLOUDY    75  63  64 S17G23    29.88S
GLENCOE        PTSUNNY   80  69  69 SE8G17    29.85R
FARIBAULT      PTSUNNY   81  66  61 SE16      29.90F
OWATONNA       PTSUNNY   81  64  57 S15G22    29.92F
WASECA         PTSUNNY   77  64  65 S14G20    29.92F
ALBERT LEA     CLOUDY    81  66  61 S13G21    29.93F
$$
MNZ078>079-086>088-094>096-051800-
   Southeast Minnesota

CITY           SKY/WX    TMP DP  RH WIND       PRES   REMARKS
ROCHESTER      PTSUNNY   77  65  66 S13G23    29.97F
RED WING       PTSUNNY   81  64  57 S7        29.92S
STANTON        CLOUDY    79  64  61 S13G21    29.90F
DODGE CENTER   PTSUNNY   77  66  69 S15       29.95F
WINONA         MOSUNNY   79  63  57 SW7       29.97F
AUSTIN         PTSUNNY   81  66  61 S14       29.96S
PRESTON        PTSUNNY   76  65  66 S10G18    30.00F
$$
ABBREVIATIONS USED IN REMARKS
   TC - TEMPERATURES IN CELSIUS
  WCI - WIND CHILL INDEX
   HX - HEAT INDEX
  VSB - VISIBILITY
$$



USA.gov is the U.S. government's official web portal to all federal, state and local government web resources and services.